• In France
  • List of Countries
  • For 7 days
  • Water Temperature
  • Satellite Maps
  • Weather Map
  • Weather Widgets
  • user-avatar
    Login

    Hourly Weather Korhogo

    Today, 16 December, Saturday

    Time Temperature Precipitation Wind Pressure Humidity
    00:00 +29°C° 0 mm 1 mps 725 mmHg 25%
    01:00 +29°C° 0 mm 1 mps 725 mmHg 27%
    02:00 +28°C° 0 mm 1 mps 724 mmHg 28%
    03:00 +27°C° 0 mm 1 mps 724 mmHg 30%
    04:00 +26°C° 0 mm 1 mps 724 mmHg 30%
    05:00 +26°C° 0 mm 1 mps 725 mmHg 31%
    06:00 +25°C° 0 mm 1 mps 725 mmHg 32%
    07:00 +27°C° 0 mm 1 mps 725 mmHg 28%
    08:00 +29°C° 0 mm 1 mps 726 mmHg 23%
    09:00 +31°C° 0 mm 2 mps 727 mmHg 19%
    10:00 +34°C° 0 mm 2 mps 726 mmHg 17%
    11:00 +36°C° 0 mm 3 mps 726 mmHg 14%
    12:00 +38°C° 0 mm 3 mps 726 mmHg 12%
    13:00 +39°C° 0 mm 3 mps 725 mmHg 11%
    14:00 +39°C° 0 mm 3 mps 725 mmHg 11%
    15:00 +40°C° 0 mm 3 mps 724 mmHg 11%
    16:00 +38°C° 0 mm 2 mps 724 mmHg 12%
    17:00 +37°C° 0 mm 2 mps 724 mmHg 13%
    18:00 +34°C° 0 mm 1 mps 724 mmHg 15%
    19:00 +33°C° 0 mm 1 mps 724 mmHg 16%
    20:00 +31°C° 0 mm 1 mps 725 mmHg 16%
    21:00 +30°C° 0 mm 1 mps 725 mmHg 17%
    22:00 +29°C° 0 mm 1 mps 725 mmHg 19%
    23:00 +29°C° 0 mm 1 mps 725 mmHg 20%

    Tomorrow, 17 December, Sunday

    Time Temperature Precipitation Wind Pressure Humidity
    00:00 +28°C° 0 mm 1 mps 725 mmHg 22%
    01:00 +27°C° 0 mm 1 mps 725 mmHg 24%
    02:00 +27°C° 0 mm 1 mps 725 mmHg 26%
    03:00 +26°C° 0 mm 1 mps 724 mmHg 28%
    04:00 +26°C° 0 mm 1 mps 725 mmHg 33%
    05:00 +25°C° 0 mm 1 mps 725 mmHg 37%
    06:00 +25°C° 0 mm 1 mps 725 mmHg 42%
    07:00 +27°C° 0 mm 1 mps 725 mmHg 40%
    08:00 +29°C° 0 mm 1 mps 726 mmHg 38%
    09:00 +31°C° 0 mm 1 mps 726 mmHg 36%
    10:00 +34°C° 0 mm 2 mps 726 mmHg 28%
    11:00 +37°C° 0 mm 2 mps 726 mmHg 20%
    12:00 +39°C° 0 mm 3 mps 726 mmHg 13%
    13:00 +39°C° 0 mm 3 mps 725 mmHg 12%
    14:00 +40°C° 0 mm 3 mps 724 mmHg 11%
    15:00 +40°C° 0 mm 3 mps 723 mmHg 10%
    16:00 +38°C° 0 mm 2 mps 723 mmHg 11%
    17:00 +37°C° 0 mm 2 mps 723 mmHg 12%
    18:00 +34°C° 0 mm 1 mps 723 mmHg 13%
    19:00 +33°C° 0 mm 1 mps 724 mmHg 14%
    20:00 +32°C° 0 mm 1 mps 724 mmHg 15%
    21:00 +30°C° 0 mm 1 mps 725 mmHg 16%
    22:00 +30°C° 0 mm 1 mps 725 mmHg 17%
    23:00 +29°C° 0 mm 1 mps 725 mmHg 18%

    Day after tomorrow, 18 December, Monday

    Time Temperature Precipitation Wind Pressure Humidity
    00:00 +29°C° 0 mm 1 mps 725 mmHg 19%
    01:00 +28°C° 0 mm 1 mps 725 mmHg 21%
    02:00 +27°C° 0 mm 1 mps 724 mmHg 23%
    03:00 +24°C° 0 mm 0 mps 724 mmHg 25%
    04:00 +24°C° 0 mm 0 mps 724 mmHg 29%
    05:00 +23°C° 0 mm 0 mps 724 mmHg 33%
    06:00 +23°C° 0 mm 0 mps 724 mmHg 37%
    07:00 +27°C° 0 mm 1 mps 725 mmHg 38%
    08:00 +29°C° 0 mm 1 mps 725 mmHg 40%
    09:00 +31°C° 0 mm 1 mps 726 mmHg 41%
    10:00 +34°C° 0 mm 1 mps 726 mmHg 33%
    11:00 +37°C° 0 mm 1 mps 726 mmHg 25%
    12:00 +40°C° 0 mm 1 mps 725 mmHg 18%
    13:00 +40°C° 0 mm 1 mps 724 mmHg 16%
    14:00 +41°C° 0 mm 1 mps 723 mmHg 15%
    15:00 +41°C° 0 mm 1 mps 722 mmHg 13%
    16:00 +39°C° 0 mm 1 mps 722 mmHg 14%
    17:00 +36°C° 0 mm 1 mps 722 mmHg 15%
    18:00 +35°C° 0 mm 1 mps 722 mmHg 16%
    19:00 +33°C° 0 mm 1 mps 723 mmHg 16%
    20:00 +32°C° 0 mm 1 mps 723 mmHg 16%
    21:00 +31°C° 0 mm 1 mps 724 mmHg 16%
    22:00 +30°C° 0 mm 1 mps 724 mmHg 17%
    23:00 +30°C° 0 mm 1 mps 724 mmHg 17%

    19 December, Tuesday

    Time Temperature Precipitation Wind Pressure Humidity
    00:00 +29°C° 0 mm 1 mps 724 mmHg 18%
    01:00 +29°C° 0 mm 1 mps 724 mmHg 22%
    02:00 +28°C° 0 mm 1 mps 723 mmHg 25%
    03:00 +27°C° 0 mm 1 mps 723 mmHg 29%
    04:00 +27°C° 0 mm 1 mps 723 mmHg 36%
    05:00 +26°C° 0 mm 1 mps 723 mmHg 42%
    06:00 +26°C° 0 mm 1 mps 723 mmHg 49%
    07:00 +27°C° 0 mm 2 mps 724 mmHg 50%
    08:00 +29°C° 0 mm 2 mps 725 mmHg 52%
    09:00 +30°C° 0 mm 3 mps 725 mmHg 53%
    10:00 +34°C° 0 mm 2 mps 725 mmHg 45%
    11:00 +36°C° 0 mm 2 mps 725 mmHg 36%
    12:00 +37°C° 0 mm 1 mps 725 mmHg 28%
    13:00 +39°C° 0 mm 1 mps 724 mmHg 25%
    14:00 +40°C° 0 mm 1 mps 723 mmHg 22%
    15:00 +38°C° 0 mm 0 mps 722 mmHg 19%
    16:00 +36°C° 0 mm 0 mps 722 mmHg 22%
    17:00 +36°C° 0 mm 1 mps 722 mmHg 24%
    18:00 +35°C° 0 mm 1 mps 722 mmHg 26%
    19:00 +34°C° 0 mm 1 mps 723 mmHg 29%
    20:00 +33°C° 0 mm 1 mps 723 mmHg 31%
    21:00 +32°C° 0 mm 1 mps 724 mmHg 33%
    22:00 +31°C° 0.2 mm 1 mps 724 mmHg 38%
    23:00 +30°C° 0.2 mm 1 mps 724 mmHg 42%

    20 December, Wednesday

    Time Temperature Precipitation Wind Pressure Humidity
    00:00 +29°C° 0.2 mm 2 mps 724 mmHg 47%
    01:00 +28°C° 0.4 mm 2 mps 723 mmHg 54%
    02:00 +28°C° 0.4 mm 2 mps 723 mmHg 62%
    03:00 +27°C° 0.4 mm 2 mps 723 mmHg 70%
    04:00 +26°C° 0 mm 2 mps 723 mmHg 73%
    05:00 +26°C° 0 mm 2 mps 723 mmHg 77%
    06:00 +25°C° 0 mm 2 mps 724 mmHg 80%
    07:00 +27°C° 0 mm 2 mps 724 mmHg 74%
    08:00 +28°C° 0 mm 2 mps 725 mmHg 68%
    09:00 +29°C° 0 mm 3 mps 725 mmHg 62%
    10:00 +32°C° 0 mm 2 mps 725 mmHg 53%
    11:00 +35°C° 0 mm 2 mps 725 mmHg 43%
    12:00 +37°C° 0 mm 1 mps 725 mmHg 33%
    13:00 +37°C° 0 mm 1 mps 724 mmHg 30%
    14:00 +39°C° 0 mm 1 mps 723 mmHg 27%
    15:00 +40°C° 0 mm 1 mps 722 mmHg 24%
    16:00 +37°C° 0 mm 1 mps 722 mmHg 25%
    17:00 +36°C° 0 mm 1 mps 722 mmHg 27%
    18:00 +35°C° 0 mm 1 mps 723 mmHg 28%
    19:00 +34°C° 0 mm 1 mps 723 mmHg 30%
    20:00 +34°C° 0 mm 1 mps 724 mmHg 31%
    21:00 +33°C° 0 mm 1 mps 724 mmHg 33%
    22:00 +33°C° 0 mm 1 mps 724 mmHg 36%
    23:00 +32°C° 0 mm 2 mps 724 mmHg 38%

    21 December, Thursday

    Time Temperature Precipitation Wind Pressure Humidity
    00:00 +32°C° 0 mm 2 mps 724 mmHg 41%
    01:00 +30°C° 0.3 mm 2 mps 724 mmHg 48%
    02:00 +29°C° 0.3 mm 2 mps 723 mmHg 56%
    03:00 +28°C° 0.3 mm 3 mps 723 mmHg 63%
    04:00 +27°C° 0.6 mm 2 mps 723 mmHg 67%
    05:00 +27°C° 0.6 mm 1 mps 724 mmHg 72%
    06:00 +26°C° 0.6 mm 1 mps 724 mmHg 76%
    07:00 +27°C° 0.1 mm 1 mps 725 mmHg 70%
    08:00 +29°C° 0.1 mm 1 mps 725 mmHg 63%
    09:00 +30°C° 0.1 mm 1 mps 726 mmHg 57%
    10:00 +33°C° 0.2 mm 1 mps 726 mmHg 48%
    11:00 +36°C° 0.2 mm 1 mps 726 mmHg 40%
    12:00 +37°C° 0.2 mm 0 mps 725 mmHg 31%
    13:00 +36°C° 0 mm 0 mps 725 mmHg 30%
    14:00 +39°C° 0 mm 1 mps 724 mmHg 28%
    15:00 +39°C° 0 mm 1 mps 723 mmHg 27%
    16:00 +37°C° 0 mm 1 mps 723 mmHg 28%
    17:00 +36°C° 0 mm 1 mps 724 mmHg 30%
    18:00 +35°C° 0 mm 1 mps 724 mmHg 31%
    19:00 +34°C° 0 mm 1 mps 724 mmHg 32%
    20:00 +33°C° 0 mm 1 mps 725 mmHg 33%
    21:00 +32°C° 0 mm 1 mps 725 mmHg 35%
    22:00 +32°C° 0 mm 1 mps 725 mmHg 34%
    23:00 +31°C° 0 mm 1 mps 725 mmHg 34%
    Show more

    XHprof extension not loaded